Regional Weather Roundup
Issued by NWS

Home | Current Version | Previous Version | Text Only | Print | Product List | Glossary On
Versions: 1 2 3 4 5 6 7 8 9 10 11 12 13 14 15 16 17 18 19 20 21 22 23 24 25 26 27 28 29 30 31 32 33 34 35 36 37 38 39 40 41 42 43 44 45 46 47 48 49 50
000
ASUS43 KDMX 262206
RWRIA

WEATHER ROUNDUP FOR IOWA
NATIONAL WEATHER SERVICE DES MOINES IA
400 PM CST SUN FEB 26 2017

NOTE: "FAIR" INDICATES FEW OR NO CLOUDS BELOW 12,000 FEET WITH NO
SIGNIFICANT WEATHER AND/OR OBSTRUCTIONS TO VISIBILITY.

* - THESE STATIONS ARE NOT NWS STATIONS...THUS NOT UNDER NWS
QUALITY CONTROL.  THEY ALSO DO NOT REPORT WEATHER SUCH
AS PRECIPITATION OR FOG.

IAZ001>003-012>014-020>022-031>034-043>046-262300-
   NORTHWEST IOWA

CITY           SKY/WX    TMP DP  RH WIND       PRES   REMARKS
CARROLL *      SUNNY     36  28  75 SW10      29.93R WCI  28
CHEROKEE *     SUNNY     32  24  73 SW9       29.92R WCI  24
DENISON *      SUNNY     36  23  60 SW5       29.92R WCI  32
LE MARS *      SUNNY     37  25  60 SW8       29.92S WCI  31
SHELDON *      SUNNY     34  32  93 SW13      29.88R WCI  25
SIOUX CITY     SUNNY     36  26  67 S6        29.93R WCI  31
SPENCER        SUNNY     33  26  75 SW13      29.90R WCI  24
STORM LAKE *   SUNNY     30  23  74 W10       29.91R WCI  21
$$

IAZ055>058-069>071-079>083-090>094-262300-
   SOUTHWEST IOWA

CITY           SKY/WX    TMP DP  RH WIND       PRES   REMARKS
ATLANTIC *     SUNNY     41  23  48 NW5       29.94R
AUDUBON *      SUNNY     39  27  60 W6        29.94R WCI  35
CLARINDA *     SUNNY     48  23  37 NW12G18   29.94S
COUNCIL BLFS * SUNNY     43  23  45 W6        29.93S
CRESTON *      SUNNY     46  23  39 NW15      29.93R
HARLAN  *      SUNNY     37  28  70 W6        29.97S WCI  33
LAMONI         CLOUDY    48  27  44 W10       29.91S
RED OAK *      SUNNY     46  19  34 NW8       29.93S
SHENANDOAH *   SUNNY     48  19  32 NW12      29.93S
$$

IAZ047>049-059>061-072>074-084-262300-
   CENTRAL IOWA

CITY           SKY/WX    TMP DP  RH WIND       PRES   REMARKS
AMES           SUNNY     38  30  73 W13       29.94R WCI  30
ANKENY *       SUNNY     43  19  39 W12       29.95R
BOONE *        SUNNY     37  25  60 W9        29.93R WCI  31
CHARITON *     PTSUNNY   48  21  34 W16       29.92R
DES MOINES     MOSUNNY   47  20  34 W10       29.93R
GRINNELL*      SUNNY     45  24  44 W18       29.94R
KNOXVILLE *    SUNNY     48  19  32 W18       29.91R
MARSHALLTOWN   SUNNY     41  24  51 W12       29.92R
NEWTON *       SUNNY     45  23  42 W20       29.92R
PELLA *        SUNNY     48  24  38 NW14      29.94R
PERRY *          N/A     38  26  61 W9        29.94S WCI  32
$$

IAZ004>006-015-016-023>025-035-036-262300-
   NORTH CENTRAL IOWA

CITY           SKY/WX    TMP DP  RH WIND       PRES   REMARKS
ALGONA *       SUNNY     32  27  80 SW10      29.91R WCI  24
CLARION *      SUNNY     30  27  86 W8        29.93R WCI  23
ESTHERVILLE    SUNNY     32  27  81 SW10      29.88R WCI  24
FORT DODGE *   SUNNY     34  21  60 SW5       29.94R WCI  30
MASON CITY     SUNNY     30  22  72 W13       29.91R WCI  20
FOREST CITY *    N/A     32  23  69 SW8       29.90R WCI  25
WEBSTER CITY * SUNNY     32  25  74 W12       29.92R WCI  23
IOWA FALLS *     N/A     34  26  71 W10       29.94R WCI  26
$$

IAZ007>011-017>019-026>030-037>042-050>054-066-262300-
   NORTHEAST IOWA

CITY           SKY/WX    TMP DP  RH WIND       PRES   REMARKS
CEDAR RAPIDS   MOSUNNY   47  24  40 W15G26    29.90R
CHARLES CITY * SUNNY     32  25  74 W12       29.91R WCI  23
CLINTON *      PTSUNNY   49  27  42 W21       29.91S
DECORAH *      SUNNY     34  25  69 W9G18     29.88R WCI  26
DUBUQUE        MOSUNNY   43  27  53 W16       29.89R
MONTICELLO *   SUNNY     46  25  42 W17       29.90R
OELWEIN *      SUNNY     39  27  60 W13G20    29.91R WCI  32
WATERLOO       SUNNY     39  24  55 W14       29.92R WCI  31
$$

IAZ064-065-067-068-078-262300-
   EAST CENTRAL IOWA

CITY           SKY/WX    TMP DP  RH WIND       PRES   REMARKS
DAVENPORT      LGT RAIN  44  31  60 W16       29.93R
IOWA CITY      MOSUNNY   51  22  31 W18G30    29.93R
MUSCATINE *    PTSUNNY   48  25  40 W12G21    29.94R
QUAD CITIES    CLOUDY    47  28  47 W9        29.93R
$$

IAZ062-063-075>077-085>089-095>099-262300-
   SOUTHEAST IOWA

CITY           SKY/WX    TMP DP  RH WIND       PRES   REMARKS
BURLINGTON     CLOUDY    50  29  44 SW22G28   29.94R
FAIRFIELD *    CLOUDY    46  28  49 NW17      29.93R
KEOKUK *       PTSUNNY   48  30  49 SW16G29   29.96R
CENTERVILLE *    N/A     46  28  49 S10       29.94S
OTTUMWA        CLOUDY    50  23  34 SW17      29.92S
WASHINGTON *   MOSUNNY   46  28  49 W9G17     29.94R
$$

ABBREVIATIONS USED IN REMARKS
   TC - TEMPERATURES IN CELSIUS
  WCI - WIND CHILL INDEX
   HX - HEAT INDEX
  VSB - VISIBILITY
$$





USA.gov is the U.S. government's official web portal to all federal, state and local government web resources and services.